Regional Weather Roundup
Issued by NWS

Home | Current Version | Previous Version | Text Only | Print | Product List | Glossary On
Versions: 1 2 3 4 5 6 7 8 9 10 11 12 13 14 15 16 17 18 19 20 21 22 23 24 25 26 27 28 29 30 31 32 33 34 35 36 37 38 39 40 41 42 43 44 45 46 47 48 49 50
045
ASUS44 KLUB 251710
RWRTX
WEST TEXAS WEATHER ROUNDUP
NATIONAL WEATHER SERVICE LUBBOCK TX
1200 PM CDT SAT MAR 25 2017

NOTE: "FAIR" INDICATES FEW OR NO CLOUDS BELOW 12,000 FEET WITH NO
SIGNIFICANT WEATHER AND/OR OBSTRUCTIONS TO VISIBILITY.

TXZ004-006>008-010-012-014-016-OKZ002-251800-
TEXAS PANHANDLE/OKLAHOMA PANHANDLE

CITY           SKY/WX    TMP DP  RH WIND       PRES   REMARKS
AMARILLO       SUNNY     59  27  29 NW13      30.09F
BORGER         SUNNY     59  23  25 N12G20    30.07F
CANADIAN       SUNNY     58  32  36 N17G24    30.05S
DALHART        SUNNY     59  30  33 MISG      30.09F
DUMAS          SUNNY     54  31  41 NW13G18   30.09F
GUYMON         SUNNY     59  24  26 N13G18    30.05S
HEREFORD       SUNNY     59  34  38 NW9G20    30.12F
PAMPA          SUNNY     59  29  31 NW16      30.07F
PERRYTON       SUNNY     57  31  37 NW20G28   30.03F
$$

TXZ026-029-035-045-048-251800-
SOUTHERN PANHANDLE/SOUTH PLAINS/ROLLING PLAINS

CITY           SKY/WX    TMP DP  RH WIND       PRES   REMARKS
CHILDRESS      SUNNY     61  35  37 N15       30.07S
SEMINOLE       SUNNY     58  34  39 CALM      30.16F
LUBBOCK        MOSUNNY   62  29  28 NW14      30.10F
PLAINVIEW      SUNNY     59  31  34 NW14G20   30.08F
SNYDER         SUNNY     59  37  42 NW8       30.12S
$$

TXZ052-054-060>062-072-078-127-140-154-169-251800-
PERMIAN BASIN/CONCHO VALLEY/BIG COUNTRY/EDWARDS PLATEAU

CITY           SKY/WX    TMP DP  RH WIND       PRES   REMARKS
ABILENE        SUNNY     59  41  51 W9        30.10F
BIG SPRING     SUNNY     62  29  29 N6        30.15F
BROWNWOOD      SUNNY     63  41  45 W8        30.10F
JUNCTION       SUNNY     67  39  35 W8        30.13S
MIDLAND        SUNNY     64  31  28 VRB7      30.14F
ODESSA         SUNNY     64  30  27 NE8       30.15F
SAN ANGELO     SUNNY     65  37  35 CALM      30.12F
SONORA         SUNNY     64  36  34 VRB3      30.18F
SWEETWATER     SUNNY     60  38  44 W6        30.13F
WINK           SUNNY     63  31  30 VRB3      30.15F
$$

TXZ055-058-074-075-080-082-251800-
FAR WEST/SOUTHWEST MOUNTAINS/TRANS PECOS

CITY           SKY/WX    TMP DP  RH WIND       PRES   REMARKS
ALPINE         SUNNY     61  29  29 E3        30.24F
DRYDEN           N/A     69  31  24 VRB3      30.13F
EL PASO        MOSUNNY   62  22  21 S10       30.13F
FORT STOCKTON  SUNNY     62  33  33 VRB5      30.17F
GUADALUPE PASS   N/A     65  28  24 SW15      30.19
MARFA          SUNNY     65  24  21 S8        30.20F
PECOS          SUNNY     62  30  29 CALM      30.16F
PRESIDIO       FAIR      70  26  18 SE6       30.16F
$$

TXZ014-016-019-021>030-083-251800
TEXAS TECH WEST TEXAS MESONET/TEXAS PANHANDLE/NORTHERN SOUTH PLAINS

CITY           SKY/WX    TMP DP  RH WIND       PRES   REMARKS
ABERNATHY 5ENE   N/A     61  31  33 NW13      30.11F
AMARILLO 9NNE    N/A     56  31  39 NW14      30.09F
AMARILLO 7SSE    N/A     58  27  30 NW16      30.10F
AMHERST 1NE      N/A     58  32  36 NW6       30.12F
BOOTLEG 11WNW    N/A     57  30  36 W5        30.14F
CANADIAN 6E      N/A     59  35  40 NW14      30.02R
CAPROCK CYN SP   N/A     61  27  27 NW14      30.07F
CHILDRESS 2NNE   N/A     61  35  39 N20       30.05F
CLARENDON 2WSW   N/A     60  28  28 NW20      30.06F
CLAUDE 12SW      N/A     59  27  28 NW12      30.09S
DIMMITT 2NE      N/A     57  31  37 NW10      30.11F
FLOYDADA 2NNE    N/A     62  25  23 NW14      30.09S
FRIONA 2NE       N/A     58  31  35 W6        30.13F
GOODLETT 3W      N/A     60  37  41 NW15      30.05F
HART 3N          N/A     57  32  38 NW12      30.11F
HEREFORD 2NW     N/A     58  32  37 NW8       30.11F
MCLEAN 1E        N/A     58  31  34 NW18      30.04F
MEMPHIS 1NE      N/A     62  34  35 NW13      30.05F
MULESHOE 2SSW    N/A     58  31  36 NW6       30.13F
OLTON 6S         N/A     59  32  36 W10       30.11F
PALO DURO SP     N/A     60  27  28 NW12      30.10F
PAMPA 2E         N/A     57  29  34 NW18      30.06S
PLAINVIEW 1S     N/A     61  32  33 NW9       30.09F
SILVERTON 7ESE   N/A     62  26  24 NW14      30.07F
TULIA 2ENE       N/A     58  34  39 W14       30.10S
TURKEY 2WSW      N/A     61  31  32 NW13      30.07S
UMBARGER 3NNE    N/A     57  32  38 NW8       30.11F
$$

TXZ033>036-039>041-045>048-251800
TEXAS TECH WEST TEXAS MESONET/SOUTH PLAINS

CITY           SKY/WX    TMP DP  RH WIND       PRES   REMARKS
AIKEN 3WSW       N/A     62  31  30 NW13      30.10F
ANDREWS 2NE      N/A     61  32  33 N5        30.16S
ANTON 6SSW       N/A     59  33  36 W9        30.12F
BROWNFIELD 2S    N/A     60  32  35 N8        30.13F
DENVR CTY 7WNW   N/A     59  29  31 NE2       30.14F
GAIL 2ESE        N/A     66  29  24 NW10      30.10F
LAMESA 2SE       N/A     63  32  31 NW8       30.13F
LEVELLAND 4S     N/A     60  30  32 NW8       30.13F
LUBBOCK 3WNW     N/A     62  31  30 NW10      30.12F
MORTON 1ENE      N/A     60  28  29 W5        30.12F
ODONNELL 1N      N/A     62  26  25 NW12      30.12F
PLAINS 3N        N/A     60  31  33 NW2       30.13F
RALLS 1SE        N/A     62  28  27 NW14      30.11S
REESE CENTER     N/A     60  30  32 NW9       30.12F
SEAGRAVES 1SW    N/A     59  32  36 NW6       30.14F
SEMINOLE 2NNE    N/A     59  33  36 NW3       30.15F
SLATON 2NE       N/A     61  28  29 NW14G23   30.11F
SNYDER 3E        N/A     62  38  41 NW6       30.11S
SUNDOWN 8SW      N/A     61  30  31 NW6       30.12F
TAHOKA 3NNE      N/A     63  28  27 NW13      30.12F
WOLFFORTH 6SSW   N/A     60  31  32 NW12      30.13F
$$

TXZ031-032-036>038-042>044-251800-
TEXAS TECH WEST TEXAS MESONET/ROLLING PLAINS

CITY           SKY/WX    TMP DP  RH WIND       PRES   REMARKS
ASPERMONT 3NE    N/A     62  38  40 NW10      30.08F
FLUVANNA 3WNW    N/A     62  32  32 NW9       30.11S
GRAHAM 5SSW      N/A     63  28  26 NW13      30.11F
GUTHRIE 10WSW    N/A     62  35  35 NW12      30.07F
HASKELL 1NW      N/A     60  37  42 NW9       30.07F
JAYTON 1SSE      N/A     61  37  40 NW7       30.09S
KNOX CITY 3NW    N/A     62  37  39 NW8       30.08F
LK A HENRY 1NW   N/A     64  34  31 N9        30.09F
NORTHFIELD 1S    N/A     63  34  33 NW13      30.07S
ODELL 4ENE       N/A     59  42  52 NW10      30.06F
PADUCAH 10SW     N/A     62  35  37 NW17      30.06F
POST 1NE         N/A     66  29  25 NW12      30.10F
RRING SPRGS 3N   N/A     62  33  33 NW13      30.08S
SEYMOUR 3NW      N/A     61  40  45 NW12      30.07S
SPUR 1W          N/A     63  31  30 N8        30.08S
WEINERT 2NNE     N/A     59  39  48 NW8       30.09S
WHITE RVR 6NE    N/A     64  28  25 NW20      30.08S
$$

TXZ052-054-060>062-072-078-127-140-154-169-251800-
TEXAS TECH WEST TEXAS MESONET/PERMIAN BASIN/
CONCHO VALLEY/BIG COUNTRY/EDWARDS PLATEAU

CITY           SKY/WX    TMP DP  RH WIND       PRES   REMARKS
COYANOSA 2N      N/A     64  29  27 SE3       30.16F
JUNCTION 1SSW    N/A     66  41  39 W3        30.13F
MERTZON 3NNE     N/A     66  36  32 NW5       30.13F
SAN ANGELO 7NW   N/A     65  37  35 W2        30.12F
STRLNG CT 4WSW   N/A     64  34  32 N5        30.13F
ST LAWRNCE 5SW   N/A     63  29  27 N7        30.14S
SWEETWATR 11SW   N/A     60  39  46 W2        30.12F
WALL 1E          N/A     62  38  41 W6        30.14F
$$

TXZ055-058-074-075-080-082-251800-
TEXAS TECH WEST TEXAS MESONET/FAR WEST/SOUTHWEST MOUNTAINS/TRANS PECOS

CITY           SKY/WX    TMP DP  RH WIND       PRES   REMARKS
PRSMN GAP BBNP   N/A     68  28  22 N3        30.15F
GUADLPE MTN NP   N/A     57  26  30 S7        30.20F
$$




USA.gov is the U.S. government's official web portal to all federal, state and local government web resources and services.